This demonstration page uses our WeatherBlox Daily Observations layout. Learn more.

Left ArrowRight Arrow

Hourly Observations for July 13, 2016

Temp ( °F °C ) Dew Point ( °F °C ) Humidity (%) Winds ( mph kmh ) Pressure ( in mb ) Visibility ( mi km ) Precip ( " mm )
12:53 am 00:53 Clear 74 23.3 70 21.1 88 88 N N/A 30.00 1016 10 16 N/A
1:53 am 01:53 Clear 74 23.3 70 21.1 88 88 N N/A 30.00 1016 10 16 N/A
2:53 am 02:53 Clear 73 22.8 70 21.1 90 90 N N/A 29.99 1016 10 16 N/A
3:53 am 03:53 Clear 71 21.7 69 20.6 94 94 N N/A 30.00 1016 8 13 N/A
4:53 am 04:53 Partly Cloudy 71 21.7 69 20.6 94 94 N N/A 30.00 1016 9 14 N/A
5:53 am 05:53 Cloudy 73 22.8 70 21.1 90 90 N N/A 30.01 1016 9 14 N/A
6:05 am 06:05 Cloudy 73 22.8 70 21.1 90 90 N N/A 30.03 1017 9 14 N/A
6:53 am 06:53 Sunny with Mist and Fog 71 21.7 69 20.6 94 94 N N/A 30.01 1016 6 10 N/A
7:53 am 07:53 Sunny 77 25 71 21.7 82 82 N N/A 30.01 1016 10 16 N/A
8:53 am 08:53 Sunny 80 26.7 72 22.2 76 76 WSW 7 11 30.02 1017 10 16 N/A
9:53 am 09:53 Partly Cloudy 82 27.8 73 22.8 74 74 WSW 8 13 30.04 1017 10 16 N/A
10:53 am 10:53 Mostly Sunny 85 29.4 75 23.9 72 72 WSW 13 20 30.03 1017 10 16 N/A
12:53 pm 12:53 Partly Cloudy 87 30.6 72 22.2 61 61 SW 10 17 30.01 1016 10 16 N/A
1:53 pm 13:53 Mostly Cloudy 90 32.2 74 23.3 59 59 WSW 10 17 29.99 1016 10 16 N/A
2:53 pm 14:53 Partly Cloudy 91 32.8 72 22.2 54 54 SW 12 19 29.98 1015 10 16 N/A
3:53 pm 15:53 Mostly Sunny 92 33.3 73 22.8 54 54 SSW 9 15 29.95 1014 10 16 N/A
4:53 pm 16:53 Mostly Sunny 91 32.8 70 21.1 50 50 SW 14 22 29.93 1014 10 16 N/A
6:53 pm 18:53 Mostly Sunny 88 31.1 70 21.1 55 55 SW 8 13 29.92 1013 10 16 N/A
7:53 pm 19:53 Sunny 87 30.6 71 21.7 59 59 SW 6 9 29.91 1013 10 16 N/A
8:53 pm 20:53 Sunny 85 29.4 71 21.7 63 63 VRB 5 7 29.92 1013 10 16 N/A
9:45 pm 21:45 Cloudy with Thunderstorms 77 25 66 18.9 69 69 NW 10 17 29.97 1015 10 16 N/A
9:53 pm 21:53 Mostly Cloudy with Thunderstorms 77 25 66 18.9 69 69 NNW 17 28 29.97 1015 10 16 N/A
10:36 pm 22:36 Cloudy with Strong Thunderstorms 71 21.7 67 19.4 87 87 SW 3 6 30.03 1017 2 3 0.17 4.32
10:45 pm 22:45 Cloudy with Thunderstorms 70 21.1 67 19.4 90 90 SSW 5 7 30.00 1016 3 5 0.19 4.83
10:53 pm 22:53 Cloudy with Thunderstorms 70 21.1 67 19.4 90 90 S 3 6 29.96 1015 9 14 0.19 4.83
11:07 pm 23:07 Cloudy with Nearby Thunderstorms 70 21.1 67 19.4 90 90 VRB 3 6 29.94 1014 10 16 N/A
11:23 pm 23:23 Partly Cloudy 71 21.7 67 19.4 87 87 WSW 5 7 29.97 1015 10 16 N/A
11:53 pm 23:53 Clear 70 21.1 67 19.4 90 90 SW 5 7 29.94 1014 10 16 N/A

Powered by AerisWeather